Year,Month,Day,Hour,Minute,Value (Times are PST for temperature in C)
2014,10,23,00,00,9.40
2014,10,23,00,01,9.40
2014,10,23,00,02,9.40
2014,10,23,00,03,9.30
2014,10,23,00,04,9.30
2014,10,23,00,05,9.30
2014,10,23,00,06,9.30
2014,10,23,00,07,9.30
2014,10,23,00,08,9.30
2014,10,23,00,09,9.30
2014,10,23,00,10,9.30
2014,10,23,00,11,9.30
2014,10,23,00,12,9.30
2014,10,23,00,13,9.30
2014,10,23,00,14,9.30
2014,10,23,00,15,9.30
2014,10,23,00,16,9.30
2014,10,23,00,17,9.20
2014,10,23,00,18,9.20
2014,10,23,00,19,9.20
2014,10,23,00,20,9.20
2014,10,23,00,21,9.20
2014,10,23,00,22,9.20
2014,10,23,00,23,9.20
2014,10,23,00,24,9.20
2014,10,23,00,25,9.20
2014,10,23,00,26,9.20
2014,10,23,00,27,9.20
2014,10,23,00,28,9.20
2014,10,23,00,29,9.20
2014,10,23,00,30,9.20
2014,10,23,00,31,9.20
2014,10,23,00,32,9.20
2014,10,23,00,33,9.20
2014,10,23,00,34,9.20
2014,10,23,00,35,9.20
2014,10,23,00,36,9.10
2014,10,23,00,37,9.10
2014,10,23,00,38,9.10
2014,10,23,00,39,9.10
2014,10,23,00,40,9.10
2014,10,23,00,41,9.10
2014,10,23,00,42,9.10
2014,10,23,00,43,9.00
2014,10,23,00,44,9.00
2014,10,23,00,45,9.00
2014,10,23,00,46,9.00
2014,10,23,00,47,9.00
2014,10,23,00,48,9.00
2014,10,23,00,49,8.90
2014,10,23,00,50,8.90
2014,10,23,00,51,8.90
2014,10,23,00,52,8.90
2014,10,23,00,53,8.90
2014,10,23,00,54,8.90
2014,10,23,00,55,8.90
2014,10,23,00,56,8.90
2014,10,23,00,57,8.90
2014,10,23,00,58,8.90
2014,10,23,00,59,8.90
2014,10,23,01,00,8.90
2014,10,23,01,01,8.90
2014,10,23,01,02,8.90
2014,10,23,01,03,8.90
2014,10,23,01,04,8.90
2014,10,23,01,05,8.90
2014,10,23,01,06,8.80
2014,10,23,01,07,8.80
2014,10,23,01,08,8.80
2014,10,23,01,09,8.80
2014,10,23,01,10,8.80
2014,10,23,01,11,8.80
2014,10,23,01,12,8.80
2014,10,23,01,13,8.80
2014,10,23,01,14,8.80
2014,10,23,01,15,8.80
2014,10,23,01,16,8.80
2014,10,23,01,17,8.80
2014,10,23,01,18,8.80
2014,10,23,01,19,8.80
2014,10,23,01,20,8.70
2014,10,23,01,21,8.70
2014,10,23,01,22,8.70
2014,10,23,01,23,8.70
2014,10,23,01,24,8.70
2014,10,23,01,25,8.70
2014,10,23,01,26,8.70
2014,10,23,01,27,8.70
2014,10,23,01,28,8.70
2014,10,23,01,29,8.70
2014,10,23,01,30,8.70
2014,10,23,01,31,8.70
2014,10,23,01,32,8.70
2014,10,23,01,33,8.70
2014,10,23,01,34,8.70
2014,10,23,01,35,8.70
2014,10,23,01,36,8.80
2014,10,23,01,37,8.80
2014,10,23,01,38,8.80
2014,10,23,01,39,8.80
2014,10,23,01,40,8.70
2014,10,23,01,41,8.70
2014,10,23,01,42,8.70
2014,10,23,01,43,8.70
2014,10,23,01,44,8.70
2014,10,23,01,45,8.70
2014,10,23,01,46,8.70
2014,10,23,01,47,8.70
2014,10,23,01,48,8.70
2014,10,23,01,49,8.70
2014,10,23,01,50,8.70
2014,10,23,01,51,8.70
2014,10,23,01,52,8.70
2014,10,23,01,53,8.70
2014,10,23,01,54,8.60
2014,10,23,01,55,8.60
2014,10,23,01,56,8.60
2014,10,23,01,57,8.60
2014,10,23,01,58,8.60
2014,10,23,01,59,8.60
2014,10,23,02,00,8.60
2014,10,23,02,01,8.60
2014,10,23,02,02,8.60
2014,10,23,02,03,8.60
2014,10,23,02,04,8.60
2014,10,23,02,05,8.50
2014,10,23,02,06,8.50
2014,10,23,02,07,8.50
2014,10,23,02,08,8.50
2014,10,23,02,09,8.40
2014,10,23,02,10,8.40
2014,10,23,02,11,8.40
2014,10,23,02,12,8.40
2014,10,23,02,13,8.40
2014,10,23,02,14,8.40
2014,10,23,02,15,8.40
2014,10,23,02,16,8.40
2014,10,23,02,17,8.40
2014,10,23,02,18,8.40
2014,10,23,02,19,8.40
2014,10,23,02,20,8.40
2014,10,23,02,21,8.40
2014,10,23,02,22,8.40
2014,10,23,02,23,8.40
2014,10,23,02,24,8.40
2014,10,23,02,25,8.30
2014,10,23,02,26,8.30
2014,10,23,02,27,8.30
2014,10,23,02,28,8.30
2014,10,23,02,29,8.30
2014,10,23,02,30,8.30
2014,10,23,02,31,8.30
2014,10,23,02,32,8.30
2014,10,23,02,33,8.30
2014,10,23,02,34,8.30
2014,10,23,02,35,8.30
2014,10,23,02,36,8.30
2014,10,23,02,37,8.30
2014,10,23,02,38,8.30
2014,10,23,02,39,8.30
2014,10,23,02,40,8.20
2014,10,23,02,41,8.30
2014,10,23,02,42,8.30
2014,10,23,02,43,8.20
2014,10,23,02,44,8.20
2014,10,23,02,45,8.20
2014,10,23,02,46,8.30
2014,10,23,02,47,8.30
2014,10,23,02,48,8.30
2014,10,23,02,49,8.30
2014,10,23,02,50,8.30
2014,10,23,02,51,8.30
2014,10,23,02,52,8.30
2014,10,23,02,53,8.30
2014,10,23,02,54,8.30
2014,10,23,02,55,8.40
2014,10,23,02,56,8.40
2014,10,23,02,57,8.40
2014,10,23,02,58,8.40
2014,10,23,02,59,8.40
2014,10,23,03,00,8.40
2014,10,23,03,01,8.40
2014,10,23,03,02,8.40
2014,10,23,03,03,8.40
2014,10,23,03,04,8.40
2014,10,23,03,05,8.40
2014,10,23,03,06,8.40
2014,10,23,03,07,8.40
2014,10,23,03,08,8.40
2014,10,23,03,09,8.50
2014,10,23,03,10,8.50
2014,10,23,03,11,8.50
2014,10,23,03,12,8.50
2014,10,23,03,13,8.50
2014,10,23,03,14,8.50
2014,10,23,03,15,8.50
2014,10,23,03,16,8.50
2014,10,23,03,17,8.50
2014,10,23,03,18,8.50
2014,10,23,03,19,8.50
2014,10,23,03,20,8.50
2014,10,23,03,21,8.50
2014,10,23,03,22,8.40
2014,10,23,03,23,8.40
2014,10,23,03,24,8.40
2014,10,23,03,25,8.40
2014,10,23,03,26,8.40
2014,10,23,03,27,8.40
2014,10,23,03,28,8.40
2014,10,23,03,29,8.40
2014,10,23,03,30,8.40
2014,10,23,03,31,8.40
2014,10,23,03,32,8.40
2014,10,23,03,33,8.40
2014,10,23,03,34,8.40
2014,10,23,03,35,8.30
2014,10,23,03,36,8.30
2014,10,23,03,37,8.30
2014,10,23,03,38,8.30
2014,10,23,03,39,8.30
2014,10,23,03,40,8.30
2014,10,23,03,41,8.30
2014,10,23,03,42,8.30
2014,10,23,03,43,8.20
2014,10,23,03,44,8.20
2014,10,23,03,45,8.20
2014,10,23,03,46,8.20
2014,10,23,03,47,8.20
2014,10,23,03,48,8.20
2014,10,23,03,49,8.20
2014,10,23,03,50,8.20
2014,10,23,03,51,8.20
2014,10,23,03,52,8.20
2014,10,23,03,53,8.20
2014,10,23,03,54,8.20
2014,10,23,03,55,8.20
2014,10,23,03,56,8.20
2014,10,23,03,57,8.20
2014,10,23,03,58,8.20
2014,10,23,03,59,8.20
2014,10,23,04,00,8.20
2014,10,23,04,01,8.20
2014,10,23,04,02,8.20
2014,10,23,04,03,8.20
2014,10,23,04,04,8.20
2014,10,23,04,05,8.20
2014,10,23,04,06,8.20
2014,10,23,04,07,8.20
2014,10,23,04,08,8.20
2014,10,23,04,09,8.20
2014,10,23,04,10,8.20
2014,10,23,04,11,8.20
2014,10,23,04,12,8.20
2014,10,23,04,13,8.20
2014,10,23,04,14,8.20
2014,10,23,04,15,8.20
2014,10,23,04,16,8.20
2014,10,23,04,17,8.20
2014,10,23,04,18,8.20
2014,10,23,04,19,8.20
2014,10,23,04,20,8.20
2014,10,23,04,21,8.20
2014,10,23,04,22,8.20
2014,10,23,04,23,8.20
2014,10,23,04,24,8.20
2014,10,23,04,25,8.20
2014,10,23,04,26,8.20
2014,10,23,04,27,8.20
2014,10,23,04,28,8.20
2014,10,23,04,29,8.30
2014,10,23,04,30,8.30
2014,10,23,04,31,8.30
2014,10,23,04,32,8.30
2014,10,23,04,33,8.30
2014,10,23,04,34,8.20
2014,10,23,04,35,8.20
2014,10,23,04,36,8.20
2014,10,23,04,37,8.20
2014,10,23,04,38,8.20
2014,10,23,04,39,8.20
2014,10,23,04,40,8.20
2014,10,23,04,41,8.20
2014,10,23,04,42,8.20
2014,10,23,04,43,8.20
2014,10,23,04,44,8.20
2014,10,23,04,45,8.20
2014,10,23,04,46,8.20
2014,10,23,04,47,8.20
2014,10,23,04,48,8.20
2014,10,23,04,49,8.20
2014,10,23,04,50,8.30
2014,10,23,04,51,8.30
2014,10,23,04,52,8.30
2014,10,23,04,53,8.30
2014,10,23,04,54,8.30
2014,10,23,04,55,8.30
2014,10,23,04,56,8.30
2014,10,23,04,57,8.30
2014,10,23,04,58,8.30
2014,10,23,04,59,8.30
2014,10,23,05,00,8.30
2014,10,23,05,01,8.30
2014,10,23,05,02,8.30
2014,10,23,05,03,8.30
2014,10,23,05,04,8.30
2014,10,23,05,05,8.30
2014,10,23,05,06,8.30
2014,10,23,05,07,8.30
2014,10,23,05,08,8.30
2014,10,23,05,09,8.30
2014,10,23,05,10,8.30
2014,10,23,05,11,8.30
2014,10,23,05,12,8.30
2014,10,23,05,13,8.30
2014,10,23,05,14,8.30
2014,10,23,05,15,8.30
2014,10,23,05,16,8.30
2014,10,23,05,17,8.30
2014,10,23,05,18,8.30
2014,10,23,05,19,8.30
2014,10,23,05,20,8.30
2014,10,23,05,21,8.30
2014,10,23,05,22,8.30
2014,10,23,05,23,8.30
2014,10,23,05,24,8.30
2014,10,23,05,25,8.30
2014,10,23,05,26,8.30
2014,10,23,05,27,8.30
2014,10,23,05,28,8.30
2014,10,23,05,29,8.30
2014,10,23,05,30,8.30
2014,10,23,05,31,8.30
2014,10,23,05,32,8.30
2014,10,23,05,33,8.30
2014,10,23,05,34,8.30
2014,10,23,05,35,8.20
2014,10,23,05,36,8.20
2014,10,23,05,37,8.20
2014,10,23,05,38,8.20
2014,10,23,05,39,8.20
2014,10,23,05,40,8.20
2014,10,23,05,41,8.20
2014,10,23,05,42,8.20
2014,10,23,05,43,8.20
2014,10,23,05,44,8.20
2014,10,23,05,45,8.20
2014,10,23,05,46,8.20
2014,10,23,05,47,8.20
2014,10,23,05,48,8.20
2014,10,23,05,49,8.20
2014,10,23,05,50,8.20
2014,10,23,05,51,8.20
2014,10,23,05,52,8.20
2014,10,23,05,53,8.20
2014,10,23,05,54,8.20
2014,10,23,05,55,8.20
2014,10,23,05,56,8.10
2014,10,23,05,57,8.10
2014,10,23,05,58,8.10
2014,10,23,05,59,8.10
2014,10,23,06,00,8.10
2014,10,23,06,01,8.10
2014,10,23,06,02,8.10
2014,10,23,06,03,8.10
2014,10,23,06,04,8.10
2014,10,23,06,05,8.10
2014,10,23,06,06,8.10
2014,10,23,06,07,8.10
2014,10,23,06,08,8.10
2014,10,23,06,09,8.20
2014,10,23,06,10,8.20
2014,10,23,06,11,8.20
2014,10,23,06,12,8.20
2014,10,23,06,13,8.20
2014,10,23,06,14,8.20
2014,10,23,06,15,8.10
2014,10,23,06,16,8.10
2014,10,23,06,17,8.10
2014,10,23,06,18,8.10
2014,10,23,06,19,8.10
2014,10,23,06,20,8.10
2014,10,23,06,21,8.10
2014,10,23,06,22,8.10
2014,10,23,06,23,8.10
2014,10,23,06,24,8.10
2014,10,23,09,14,7.80
2014,10,23,09,15,7.80
2014,10,23,09,16,7.80
2014,10,23,09,17,7.90
2014,10,23,09,18,7.80
2014,10,23,09,19,7.80
2014,10,23,09,20,7.80
2014,10,23,09,21,7.90
2014,10,23,09,22,7.90
2014,10,23,09,23,7.90
2014,10,23,09,24,7.90
2014,10,23,09,25,7.90
2014,10,23,09,26,7.90
2014,10,23,09,27,8.00
2014,10,23,09,28,8.00
2014,10,23,09,29,8.00
2014,10,23,09,30,8.00
2014,10,23,09,31,8.10
2014,10,23,09,32,8.10
2014,10,23,09,33,8.10
2014,10,23,09,34,8.10
2014,10,23,09,35,8.10
2014,10,23,09,36,8.10
2014,10,23,09,37,8.10
2014,10,23,09,38,8.10
2014,10,23,09,39,8.10
2014,10,23,09,40,8.10
2014,10,23,09,41,8.10
2014,10,23,09,42,8.10
2014,10,23,09,43,8.10
2014,10,23,09,44,8.10
2014,10,23,09,45,8.20
2014,10,23,09,46,8.20
2014,10,23,09,47,8.20
2014,10,23,09,48,8.20
2014,10,23,09,49,8.30
2014,10,23,09,50,8.30
2014,10,23,09,51,8.30
2014,10,23,09,52,8.30
2014,10,23,09,53,8.40
2014,10,23,09,54,8.40
2014,10,23,09,55,8.40
2014,10,23,09,56,8.40
2014,10,23,09,57,8.40
2014,10,23,09,58,8.40
2014,10,23,09,59,8.40
2014,10,23,10,00,8.40
2014,10,23,10,01,8.40
2014,10,23,10,02,8.40
2014,10,23,10,03,8.40
2014,10,23,10,04,8.40
2014,10,23,10,05,8.30
2014,10,23,10,06,8.30
2014,10,23,10,07,8.30
2014,10,23,10,08,8.30
2014,10,23,10,09,8.30
2014,10,23,10,10,8.30
2014,10,23,10,11,8.30
2014,10,23,10,12,8.40
2014,10,23,10,13,8.40
2014,10,23,10,14,8.50
2014,10,23,10,15,8.50
2014,10,23,10,16,8.60
2014,10,23,10,17,8.60
2014,10,23,10,18,8.60
2014,10,23,10,19,8.60
2014,10,23,10,20,8.60
2014,10,23,10,21,8.70
2014,10,23,10,22,8.70
2014,10,23,10,23,8.70
2014,10,23,10,24,8.80
2014,10,23,10,25,8.80
2014,10,23,10,26,8.80
2014,10,23,10,27,8.80
2014,10,23,10,28,8.90
2014,10,23,10,29,8.80
2014,10,23,10,30,8.80
2014,10,23,10,31,8.80
2014,10,23,10,32,8.80
2014,10,23,10,33,8.80
2014,10,23,10,34,8.80
2014,10,23,10,35,8.80
2014,10,23,10,36,8.90
2014,10,23,10,37,8.90
2014,10,23,10,38,8.90
2014,10,23,10,39,8.90
2014,10,23,10,40,8.90
2014,10,23,10,41,9.00
2014,10,23,10,42,9.00
2014,10,23,10,43,9.10
2014,10,23,10,44,9.20
2014,10,23,10,45,9.20
2014,10,23,10,46,9.20
2014,10,23,10,47,9.30
2014,10,23,10,48,9.30
2014,10,23,10,49,9.30
2014,10,23,10,50,9.30
2014,10,23,10,51,9.30
2014,10,23,10,52,9.20
2014,10,23,10,53,9.20
2014,10,23,10,54,9.20
2014,10,23,10,55,9.20
2014,10,23,10,56,9.10
2014,10,23,10,57,9.10
2014,10,23,10,58,9.10
2014,10,23,10,59,9.20
2014,10,23,11,00,9.20
2014,10,23,11,01,9.20
2014,10,23,11,02,9.20
2014,10,23,11,03,9.20
2014,10,23,11,04,9.20
2014,10,23,11,05,9.30
2014,10,23,11,06,9.30
2014,10,23,11,07,9.30
2014,10,23,11,08,9.30
2014,10,23,11,09,9.30
2014,10,23,11,10,9.30
2014,10,23,11,11,9.30
2014,10,23,11,12,9.30
2014,10,23,11,13,9.30
2014,10,23,11,14,9.30
2014,10,23,11,15,9.20
2014,10,23,11,16,9.20
2014,10,23,11,17,9.20
2014,10,23,11,18,9.20
2014,10,23,11,19,9.20
2014,10,23,11,20,9.20
2014,10,23,11,21,9.20
2014,10,23,11,22,9.20
2014,10,23,11,23,9.20
2014,10,23,11,24,9.20
2014,10,23,11,25,9.10
2014,10,23,11,26,9.10
2014,10,23,11,27,9.10
2014,10,23,11,28,9.00
2014,10,23,11,29,9.00
2014,10,23,11,30,9.10
2014,10,23,11,31,9.10
2014,10,23,11,32,9.10
2014,10,23,11,33,9.10
2014,10,23,11,34,9.10
2014,10,23,11,35,9.00
2014,10,23,11,36,9.00
2014,10,23,11,37,8.90
2014,10,23,11,38,8.90
2014,10,23,11,39,8.90
2014,10,23,11,40,8.90
2014,10,23,11,41,8.90
2014,10,23,11,42,8.90
2014,10,23,11,43,8.90
2014,10,23,11,44,8.90
2014,10,23,11,45,8.90
2014,10,23,11,46,8.90
2014,10,23,11,47,8.90
2014,10,23,11,48,8.90
2014,10,23,11,49,8.90
2014,10,23,11,50,8.90
2014,10,23,11,51,8.90
2014,10,23,11,52,8.90
2014,10,23,11,53,8.90
2014,10,23,11,54,8.90
2014,10,23,11,55,8.90
2014,10,23,11,56,8.90
2014,10,23,11,57,8.90
2014,10,23,11,58,8.90
2014,10,23,11,59,8.90
2014,10,23,12,00,8.90
2014,10,23,12,01,8.90
2014,10,23,12,02,8.90
2014,10,23,12,03,8.90
2014,10,23,12,04,8.90
2014,10,23,12,05,8.90
2014,10,23,12,06,8.90
2014,10,23,12,07,8.90
2014,10,23,12,08,8.90
2014,10,23,12,09,8.90
2014,10,23,12,10,9.00
2014,10,23,12,11,9.00
2014,10,23,12,12,9.00
2014,10,23,12,13,9.00
2014,10,23,12,14,9.00
2014,10,23,12,15,8.90
2014,10,23,12,16,9.00
2014,10,23,12,17,9.00
2014,10,23,12,18,9.00
2014,10,23,12,19,9.10
2014,10,23,12,20,9.10
2014,10,23,12,21,9.10
2014,10,23,12,22,9.10
2014,10,23,12,23,9.20
2014,10,23,12,24,9.20
2014,10,23,12,25,9.20
2014,10,23,12,26,9.20
2014,10,23,12,27,9.20
2014,10,23,12,28,9.20
2014,10,23,12,29,9.30
2014,10,23,12,30,9.30
2014,10,23,12,31,9.30
2014,10,23,12,32,9.30
2014,10,23,12,33,9.30
2014,10,23,12,34,9.30
2014,10,23,12,35,9.30
2014,10,23,12,36,9.40
2014,10,23,12,37,9.40
2014,10,23,12,38,9.40
2014,10,23,12,39,9.40
2014,10,23,12,40,9.40
2014,10,23,12,41,9.30
2014,10,23,12,42,9.30
2014,10,23,12,43,9.30
2014,10,23,12,44,9.40
2014,10,23,12,45,9.30
2014,10,23,12,46,9.30
2014,10,23,12,47,9.40
2014,10,23,12,48,9.40
2014,10,23,12,49,9.40
2014,10,23,12,50,9.40
2014,10,23,12,51,9.40
2014,10,23,12,52,9.40
2014,10,23,12,53,9.40
2014,10,23,12,54,9.40
2014,10,23,12,55,9.50
2014,10,23,12,56,9.50
2014,10,23,12,57,9.50
2014,10,23,12,58,9.50
2014,10,23,12,59,9.40
2014,10,23,13,00,9.40
2014,10,23,13,01,9.40
2014,10,23,13,02,9.40
2014,10,23,13,03,9.40
2014,10,23,13,04,9.40
2014,10,23,13,05,9.40
2014,10,23,13,06,9.40
2014,10,23,13,07,9.40
2014,10,23,13,08,9.40
2014,10,23,13,09,9.40
2014,10,23,13,10,9.40
2014,10,23,13,11,9.40
2014,10,23,13,12,9.40
2014,10,23,13,13,9.40
2014,10,23,13,14,9.40
2014,10,23,13,15,9.40
2014,10,23,13,16,9.50
2014,10,23,13,17,9.50
2014,10,23,13,18,9.50
2014,10,23,13,19,9.50
2014,10,23,13,20,9.50
2014,10,23,13,21,9.50
2014,10,23,13,22,9.50
2014,10,23,13,23,9.50
2014,10,23,13,24,9.50
2014,10,23,13,25,9.50
2014,10,23,13,26,9.50
2014,10,23,13,27,9.50
2014,10,23,13,28,9.60
2014,10,23,13,29,9.60
2014,10,23,13,30,9.60
2014,10,23,13,31,9.60
2014,10,23,13,32,9.60
2014,10,23,13,33,9.50
2014,10,23,13,34,9.50
2014,10,23,13,35,9.60
2014,10,23,13,36,9.60
2014,10,23,13,37,9.60
2014,10,23,13,38,9.60
2014,10,23,13,39,9.60
2014,10,23,13,40,9.60
2014,10,23,13,41,9.50
2014,10,23,13,42,9.50
2014,10,23,13,43,9.50
2014,10,23,13,44,9.60
2014,10,23,13,45,9.60
2014,10,23,13,46,9.60
2014,10,23,13,47,9.60
2014,10,23,13,48,9.60
2014,10,23,13,49,9.60
2014,10,23,13,50,9.60
2014,10,23,13,51,9.60
2014,10,23,13,52,9.60
2014,10,23,13,53,9.60
2014,10,23,13,54,9.60
2014,10,23,13,55,9.60
2014,10,23,13,56,9.60
2014,10,23,13,57,9.60
2014,10,23,13,58,9.60
2014,10,23,13,59,9.60
2014,10,23,14,00,9.60
2014,10,23,14,01,9.50
2014,10,23,14,02,9.50
2014,10,23,14,03,9.40
2014,10,23,14,04,9.40
2014,10,23,14,05,9.40
2014,10,23,14,06,9.40
2014,10,23,14,07,9.40
2014,10,23,14,08,9.40
2014,10,23,14,09,9.40
2014,10,23,14,10,9.40
2014,10,23,14,11,9.30
2014,10,23,14,12,9.30
2014,10,23,14,13,9.30
2014,10,23,14,14,9.30
2014,10,23,14,15,9.30
2014,10,23,14,16,9.30
2014,10,23,14,17,9.20
2014,10,23,14,18,9.20
2014,10,23,14,19,9.20
2014,10,23,14,20,9.20
2014,10,23,14,21,9.20
2014,10,23,14,22,9.10
2014,10,23,14,23,9.10
2014,10,23,14,24,9.10
2014,10,23,14,25,9.00
2014,10,23,14,26,9.00
2014,10,23,14,27,8.90
2014,10,23,14,28,8.90
2014,10,23,14,29,8.90
2014,10,23,14,30,8.90
2014,10,23,14,31,8.80
2014,10,23,14,32,8.80
2014,10,23,14,33,8.90
2014,10,23,14,34,8.90
2014,10,23,14,35,8.90
2014,10,23,14,36,8.80
2014,10,23,14,37,8.80
2014,10,23,14,38,8.80
2014,10,23,14,39,8.80
2014,10,23,14,40,8.80
2014,10,23,14,41,8.80
2014,10,23,14,42,8.80
2014,10,23,14,43,8.80
2014,10,23,14,44,8.80
2014,10,23,14,45,8.80
2014,10,23,14,46,8.70
2014,10,23,14,47,8.70
2014,10,23,14,48,8.70
2014,10,23,14,49,8.70
2014,10,23,14,50,8.70
2014,10,23,14,51,8.70
2014,10,23,14,52,8.70
2014,10,23,14,53,8.70
2014,10,23,14,54,8.60
2014,10,23,14,55,8.60
2014,10,23,14,56,8.60
2014,10,23,14,57,8.60
2014,10,23,14,58,8.60
2014,10,23,14,59,8.60
2014,10,23,15,00,8.60
2014,10,23,15,01,8.60
2014,10,23,15,02,8.50
2014,10,23,15,03,8.50
2014,10,23,15,04,8.50
2014,10,23,15,05,8.50
2014,10,23,15,06,8.50
2014,10,23,15,07,8.50
2014,10,23,15,08,8.50
2014,10,23,15,09,8.50
2014,10,23,15,10,8.50
2014,10,23,15,11,8.50
2014,10,23,15,12,8.50
2014,10,23,15,13,8.50
2014,10,23,15,14,8.50
2014,10,23,15,15,8.50
2014,10,23,15,16,8.50
2014,10,23,15,17,8.60
2014,10,23,15,18,8.60
2014,10,23,15,19,8.60
2014,10,23,15,20,8.60
2014,10,23,15,21,8.60
2014,10,23,15,22,8.60
2014,10,23,15,23,8.60
2014,10,23,15,24,8.70
2014,10,23,15,25,8.70
2014,10,23,15,26,8.70
2014,10,23,15,27,8.70
2014,10,23,15,28,8.70
2014,10,23,15,29,8.70
2014,10,23,15,30,8.70
2014,10,23,15,31,8.80
2014,10,23,15,32,8.80
2014,10,23,15,33,8.80
2014,10,23,15,34,8.80
2014,10,23,15,35,8.80
2014,10,23,15,36,8.90
2014,10,23,15,37,8.90
2014,10,23,15,38,8.90
2014,10,23,15,39,9.00
2014,10,23,15,40,9.00
2014,10,23,15,41,9.10
2014,10,23,15,42,9.10
2014,10,23,15,43,9.10
2014,10,23,15,44,9.20
2014,10,23,15,45,9.20
2014,10,23,15,46,9.20
2014,10,23,15,47,9.20
2014,10,23,15,48,9.20
2014,10,23,15,49,9.20
2014,10,23,15,50,9.20
2014,10,23,15,51,9.20
2014,10,23,15,52,9.20
2014,10,23,15,53,9.30
2014,10,23,15,54,9.20
2014,10,23,15,55,9.30
2014,10,23,15,56,9.30
2014,10,23,15,57,9.30
2014,10,23,15,58,9.30
2014,10,23,15,59,9.30
2014,10,23,16,00,9.20
2014,10,23,16,01,9.20
2014,10,23,16,02,9.20
2014,10,23,16,03,9.20
2014,10,23,16,04,9.20
2014,10,23,16,05,9.20
2014,10,23,16,06,9.20
2014,10,23,16,07,9.20
2014,10,23,16,08,9.20
2014,10,23,16,09,9.10
2014,10,23,16,10,9.10
2014,10,23,16,11,9.10
2014,10,23,16,12,9.10
2014,10,23,16,13,9.20
2014,10,23,16,14,9.20
2014,10,23,16,15,9.20
2014,10,23,16,16,9.10
2014,10,23,16,17,9.10
2014,10,23,16,18,9.10
2014,10,23,16,19,9.10
2014,10,23,16,20,9.10
2014,10,23,16,21,9.10
2014,10,23,16,22,9.10
2014,10,23,16,23,9.10
2014,10,23,16,24,9.20
2014,10,23,16,25,9.20
2014,10,23,16,26,9.10
2014,10,23,16,27,9.10
2014,10,23,16,28,9.10
2014,10,23,16,29,9.10
2014,10,23,16,30,9.10
2014,10,23,16,31,9.10
2014,10,23,16,32,9.10
2014,10,23,16,33,9.10
2014,10,23,16,34,9.00
2014,10,23,16,35,9.00
2014,10,23,16,36,9.00
2014,10,23,16,37,9.00
2014,10,23,16,38,9.00
2014,10,23,16,39,9.00
2014,10,23,16,40,9.00
2014,10,23,16,41,9.00
2014,10,23,16,42,9.00
2014,10,23,16,43,9.00
2014,10,23,16,44,9.00
2014,10,23,16,45,9.00
2014,10,23,16,46,9.00
2014,10,23,16,47,9.00
2014,10,23,16,48,9.00
2014,10,23,16,49,9.00
2014,10,23,16,50,9.10
2014,10,23,16,51,9.10
2014,10,23,16,52,9.10
2014,10,23,16,53,9.10
2014,10,23,16,54,9.10
2014,10,23,16,55,9.10
2014,10,23,16,56,9.10
2014,10,23,16,57,9.20
2014,10,23,16,58,9.20
2014,10,23,16,59,9.20
2014,10,23,17,00,9.20
2014,10,23,17,01,9.20
2014,10,23,17,02,9.20
2014,10,23,17,03,9.20
2014,10,23,17,04,9.20
2014,10,23,17,05,9.20
2014,10,23,17,06,9.20
2014,10,23,17,07,9.20
2014,10,23,17,08,9.30
2014,10,23,17,09,9.30
2014,10,23,17,10,9.30
2014,10,23,17,11,9.30
2014,10,23,17,12,9.30
2014,10,23,17,13,9.30
2014,10,23,17,14,9.30
2014,10,23,17,15,9.30
2014,10,23,17,16,9.30
2014,10,23,17,17,9.30
2014,10,23,17,18,9.30
2014,10,23,17,19,9.30
2014,10,23,17,20,9.30
2014,10,23,17,21,9.30
2014,10,23,17,22,9.30
2014,10,23,17,23,9.30
2014,10,23,17,24,9.30
2014,10,23,17,25,9.30
2014,10,23,17,26,9.30
2014,10,23,17,27,9.30
2014,10,23,17,28,9.30
2014,10,23,17,29,9.30
2014,10,23,17,30,9.30
2014,10,23,17,31,9.30
2014,10,23,17,32,9.30
2014,10,23,17,33,9.30
2014,10,23,17,34,9.20
2014,10,23,17,35,9.20
2014,10,23,17,36,9.20
2014,10,23,17,37,9.20
2014,10,23,17,38,9.20
2014,10,23,17,39,9.20
2014,10,23,17,40,9.20
2014,10,23,17,41,9.20
2014,10,23,17,42,9.20
2014,10,23,17,43,9.20
2014,10,23,17,44,9.20
2014,10,23,17,45,9.10
2014,10,23,17,46,9.10
2014,10,23,17,47,9.10
2014,10,23,17,48,9.10
2014,10,23,17,49,9.10
2014,10,23,17,50,9.00
2014,10,23,17,51,9.00
2014,10,23,17,52,8.90
2014,10,23,17,53,8.90
2014,10,23,17,54,8.90
2014,10,23,17,55,8.90
2014,10,23,17,56,8.90
2014,10,23,17,57,8.80
2014,10,23,17,58,8.80
2014,10,23,17,59,8.80
2014,10,23,18,00,8.80
2014,10,23,18,01,8.80
2014,10,23,18,02,8.80
2014,10,23,18,03,8.80
2014,10,23,18,04,8.70
2014,10,23,18,05,8.70
2014,10,23,18,06,8.70
2014,10,23,18,07,8.70
2014,10,23,18,08,8.70
2014,10,23,18,09,8.70
2014,10,23,18,10,8.60
2014,10,23,18,11,8.60
2014,10,23,18,12,8.60
2014,10,23,18,13,8.60
2014,10,23,18,14,8.60
2014,10,23,18,15,8.60
2014,10,23,18,16,8.60
2014,10,23,18,17,8.60
2014,10,23,18,18,8.60
2014,10,23,18,19,8.60
2014,10,23,18,20,8.60
2014,10,23,18,21,8.60
2014,10,23,18,22,8.60
2014,10,23,18,23,8.60
2014,10,23,18,24,8.60
2014,10,23,18,25,8.60
2014,10,23,18,26,8.60
2014,10,23,18,27,8.50
2014,10,23,18,28,8.50
2014,10,23,18,29,8.50
2014,10,23,18,30,8.50
2014,10,23,18,31,8.50
2014,10,23,18,32,8.40
2014,10,23,18,33,8.40
2014,10,23,18,34,8.40
2014,10,23,18,35,8.40
2014,10,23,18,36,8.40
2014,10,23,18,37,8.40
2014,10,23,18,38,8.40
2014,10,23,18,39,8.40
2014,10,23,18,40,8.40
2014,10,23,18,41,8.40
2014,10,23,18,42,8.40
2014,10,23,18,43,8.40
2014,10,23,18,44,8.40
2014,10,23,18,45,8.30
2014,10,23,18,46,8.30
2014,10,23,18,47,8.30
2014,10,23,18,48,8.30
2014,10,23,18,49,8.30
2014,10,23,18,50,8.30
2014,10,23,18,51,8.30
2014,10,23,18,52,8.20
2014,10,23,18,53,8.20
2014,10,23,18,54,8.20
2014,10,23,18,55,8.20
2014,10,23,18,56,8.20
2014,10,23,18,57,8.20
2014,10,23,18,58,8.20
2014,10,23,18,59,8.20
2014,10,23,19,00,8.20
2014,10,23,19,01,8.20
2014,10,23,19,02,8.20
2014,10,23,19,03,8.20
2014,10,23,19,04,8.10
2014,10,23,19,05,8.10
2014,10,23,19,06,8.10
2014,10,23,19,07,8.10
2014,10,23,19,08,8.10
2014,10,23,19,09,8.10
2014,10,23,19,10,8.10
2014,10,23,19,11,8.10
2014,10,23,19,12,8.10
2014,10,23,19,13,8.10
2014,10,23,19,14,8.10
2014,10,23,19,15,8.10
2014,10,23,19,16,8.10
2014,10,23,19,17,8.10
2014,10,23,19,18,8.10
2014,10,23,19,19,8.10
2014,10,23,19,20,8.10
2014,10,23,19,21,8.10
2014,10,23,19,22,8.10
2014,10,23,19,23,8.10
2014,10,23,19,24,8.10
2014,10,23,19,25,8.10
2014,10,23,19,26,8.10
2014,10,23,19,27,8.10
2014,10,23,19,28,8.10
2014,10,23,19,29,8.10
2014,10,23,19,30,8.10
2014,10,23,19,31,8.10
2014,10,23,19,32,8.10
2014,10,23,19,33,8.10
2014,10,23,19,34,8.00
2014,10,23,19,35,8.00
2014,10,23,19,36,8.00
2014,10,23,19,37,8.00
2014,10,23,19,38,8.00
2014,10,23,19,39,7.90
2014,10,23,19,40,7.90
2014,10,23,19,41,7.90
2014,10,23,19,42,7.90
2014,10,23,19,43,7.90
2014,10,23,19,44,7.80
2014,10,23,19,45,7.80
2014,10,23,19,46,7.80
2014,10,23,19,47,7.80
2014,10,23,19,48,7.80
2014,10,23,19,49,7.80
2014,10,23,19,50,7.80
2014,10,23,19,51,7.80
2014,10,23,19,52,7.70
2014,10,23,19,53,7.70
2014,10,23,19,54,7.70
2014,10,23,19,55,7.70
2014,10,23,19,56,7.70
2014,10,23,19,57,7.70
2014,10,23,19,58,7.60
2014,10,23,19,59,7.60
2014,10,23,20,00,7.60
2014,10,23,20,01,7.60
2014,10,23,20,02,7.60
2014,10,23,20,03,7.50
2014,10,23,20,04,7.50
2014,10,23,20,05,7.50
2014,10,23,20,06,7.50
2014,10,23,20,07,7.40
2014,10,23,20,08,7.40
2014,10,23,20,09,7.40
2014,10,23,20,10,7.40
2014,10,23,20,11,7.40
2014,10,23,20,12,7.30
2014,10,23,20,13,7.30
2014,10,23,20,14,7.30
2014,10,23,20,15,7.30
2014,10,23,20,16,7.30
2014,10,23,20,17,7.30
2014,10,23,20,18,7.30
2014,10,23,20,19,7.30
2014,10,23,20,20,7.30
2014,10,23,20,21,7.30
2014,10,23,20,22,7.30
2014,10,23,20,23,7.20
2014,10,23,20,24,7.20
2014,10,23,20,25,7.20
2014,10,23,20,26,7.20
2014,10,23,20,27,7.20
2014,10,23,20,28,7.20
2014,10,23,20,29,7.20
2014,10,23,20,30,7.20
2014,10,23,20,31,7.20
2014,10,23,20,32,7.20
2014,10,23,20,33,7.20
2014,10,23,20,34,7.20
2014,10,23,20,35,7.20
2014,10,23,20,36,7.20
2014,10,23,20,37,7.20
2014,10,23,20,38,7.20
2014,10,23,20,39,7.20
2014,10,23,20,40,7.20
2014,10,23,20,41,7.20
2014,10,23,20,42,7.20
2014,10,23,20,43,7.20
2014,10,23,20,44,7.20
2014,10,23,20,45,7.20
2014,10,23,20,46,7.20
2014,10,23,20,47,7.30
2014,10,23,20,48,7.30
2014,10,23,20,49,7.30
2014,10,23,20,50,7.30
2014,10,23,20,51,7.30
2014,10,23,20,52,7.30
2014,10,23,20,53,7.30
2014,10,23,20,54,7.30
2014,10,23,20,55,7.30